Location: Newark
(46.9000°N, 28.3500°E)
Time: 10:56:33
(UTC+00:00)

Transit 4A - All Passes

Search period start: 20 August 2019 00:00
Search period end: 30 August 2019 00:00
Orbit: 863 x 981 km, 66.8° (Epoch: 20 August)

Date Brightness Start Highest point End Pass type
(mag) Time Alt. Az. Time Alt. Az. Time Alt. Az.
20 Aug - 00:42:00 10° NNW 00:48:04 48° NE 00:53:56 10° ESE visible
20 Aug - 02:28:42 10° NW 02:34:19 37° WSW 02:39:46 10° S visible
20 Aug - 15:51:53 10° S 15:57:34 35° ESE 16:03:15 10° NE daylight
20 Aug - 17:37:28 10° SW 17:43:44 54° NW 17:50:01 10° NNE visible
20 Aug - 19:27:18 10° WNW 19:31:37 18° NNW 19:35:54 10° NNE visible
20 Aug - 21:18:31 10° NNW 21:20:49 12° N 21:23:06 10° NNE visible
20 Aug - 23:05:21 10° NNW 23:09:55 20° NNE 23:14:22 10° ENE visible
21 Aug - 00:51:19 10° NNW 00:57:33 65° NE 01:03:33 10° SE visible
21 Aug - 02:38:28 10° NW 02:43:25 26° WSW 02:48:14 10° SSW visible
21 Aug - 16:00:37 10° S 16:06:44 49° ESE 16:12:52 10° NE daylight
21 Aug - 17:47:16 10° WSW 17:53:17 41° NW 17:59:17 10° NNE visible
21 Aug - 19:37:48 10° NW 19:41:30 16° NNW 19:45:12 10° NNE visible
21 Aug - 21:28:18 10° NNW 21:30:50 12° N 21:33:20 10° NNE visible
21 Aug - 23:14:37 10° NNW 23:19:41 25° NE 23:24:37 10° E visible
22 Aug - 01:00:40 10° NNW 01:06:57 89° ENE 01:12:59 10° SSE visible
22 Aug - 02:48:35 10° WNW 02:52:26 17° WSW 02:56:13 10° SW daylight
22 Aug - 14:28:11 10° SE 14:30:44 13° E 14:33:18 10° ENE daylight
22 Aug - 16:09:38 10° SSW 16:15:59 69° ESE 16:22:21 10° NE daylight
22 Aug - 17:57:14 10° WSW 18:02:54 32° NW 18:08:32 10° NNE visible
22 Aug - 19:48:20 10° NW 19:51:26 14° NNW 19:54:32 10° NNE visible
22 Aug - 21:37:49 10° NNW 21:40:49 13° NNE 21:43:47 10° NE visible
22 Aug - 23:23:51 10° NNW 23:29:23 31° NE 23:34:45 10° E visible
23 Aug - 01:10:05 10° NW 01:16:16 67° WSW 01:22:12 10° SSE visible
23 Aug - 02:59:44 10° W 03:01:23 11° W 03:03:00 10° WSW daylight
23 Aug - 14:35:25 10° SSE 14:39:43 19° ESE 14:44:02 10° ENE daylight
23 Aug - 16:18:53 10° SSW 16:25:20 87° NW 16:31:46 10° NNE daylight
23 Aug - 18:07:23 10° W 18:12:36 25° NW 18:17:47 10° NNE visible
23 Aug - 19:58:50 10° NNW 20:01:26 12° N 20:04:01 10° NNE visible
23 Aug - 21:47:11 10° NNW 21:50:46 15° NNE 21:54:17 10° NE visible
23 Aug - 23:33:07 10° NNW 23:39:00 40° NE 23:44:41 10° ESE visible
24 Aug - 01:19:36 10° NW 01:25:29 46° WSW 01:31:11 10° S visible
24 Aug - 14:43:30 10° SSE 14:48:46 28° ESE 14:54:02 10° NE daylight
24 Aug - 16:28:21 10° SW 16:34:43 65° NW 16:41:06 10° NNE daylight
24 Aug - 18:17:41 10° WNW 18:22:22 21° NNW 18:27:01 10° NNE visible
24 Aug - 20:09:09 10° NNW 20:11:26 12° N 20:13:44 10° NNE visible
24 Aug - 21:56:29 10° NNW 22:00:39 18° NNE 22:04:45 10° ENE visible
24 Aug - 23:42:24 10° NNW 23:48:32 54° NE 23:54:26 10° SE visible
25 Aug - 01:29:15 10° NW 01:34:38 32° WSW 01:39:52 10° S visible
25 Aug - 14:52:03 10° S 14:57:54 39° ESE 15:03:46 10° NE daylight
25 Aug - 16:38:02 10° WSW 16:44:13 48° NW 16:50:24 10° NNE daylight
25 Aug - 18:28:08 10° WNW 18:32:13 17° NNW 18:36:16 10° NNE visible
25 Aug - 20:19:08 10° NNW 20:21:29 12° N 20:23:46 10° NNE visible
25 Aug - 22:05:45 10° NNW 22:10:29 22° NNE 22:15:05 10° E visible
25 Aug - 23:51:44 10° NNW 23:57:59 73° NE 00:04:00 10° SE visible
26 Aug - 01:39:07 10° WNW 01:43:42 22° WSW 01:48:11 10° SSW visible
26 Aug - 15:00:53 10° SSW 15:07:07 56° ESE 15:13:20 10° NE daylight
26 Aug - 16:47:53 10° WSW 16:53:47 37° NW 16:59:40 10° NNE daylight
26 Aug - 18:38:40 10° NW 18:42:08 15° NNW 18:45:34 10° NNE visible
26 Aug - 20:28:49 10° NNW 20:31:29 13° N 20:34:06 10° NE visible
26 Aug - 22:15:00 10° NNW 22:20:13 27° NE 22:25:18 10° E visible
27 Aug - 00:01:07 10° NW 00:07:21 82° WSW 00:13:21 10° SSE visible
27 Aug - 01:49:27 10° WNW 01:52:42 15° WSW 01:55:54 10° SW visible
27 Aug - 13:27:39 10° SE 13:31:01 15° ESE 13:34:22 10° ENE daylight
27 Aug - 15:10:00 10° SSW 15:16:23 77° ESE 15:22:47 10° NE daylight
27 Aug - 16:57:56 10° W 17:03:26 29° NW 17:08:55 10° NNE daylight
27 Aug - 18:49:13 10° NW 18:52:05 13° NNW 18:54:57 10° NNE visible
27 Aug - 20:38:17 10° NNW 20:41:27 14° NNE 20:44:35 10° NE visible
27 Aug - 22:24:15 10° NNW 22:29:54 34° NE 22:35:22 10° ESE visible
28 Aug - 00:10:34 10° NW 00:16:38 58° WSW 00:22:29 10° SSE visible
28 Aug - 13:35:18 10° SSE 13:40:01 22° ESE 13:44:44 10° ENE daylight
28 Aug - 15:19:19 10° SW 15:25:45 79° NW 15:32:10 10° NNE daylight
28 Aug - 17:08:08 10° W 17:13:09 23° NNW 17:18:08 10° NNE daylight
28 Aug - 18:59:39 10° NNW 19:02:05 12° N 19:04:29 10° NNE visible
28 Aug - 20:47:37 10° NNW 20:51:23 16° NNE 20:55:05 10° ENE visible
28 Aug - 22:33:31 10° NNW 22:39:29 44° NE 22:45:14 10° ESE visible
29 Aug - 00:20:07 10° NW 00:25:50 41° WSW 00:31:21 10° S visible
29 Aug - 13:43:35 10° S 13:49:06 32° ESE 13:54:38 10° NE daylight
29 Aug - 15:28:52 10° SW 15:35:11 58° NW 15:41:29 10° NNE daylight
29 Aug - 17:18:30 10° WNW 17:22:57 19° NNW 17:27:23 10° NNE visible
29 Aug - 19:09:52 10° NNW 19:12:06 12° N 19:14:19 10° NNE visible
29 Aug - 20:56:53 10° NNW 21:01:14 19° NNE 21:05:30 10° ENE visible
29 Aug - 22:42:48 10° NNW 22:48:59 60° NE 22:54:55 10° SE visible
